[[{"header":{"parameterUnit":"m.s-1","parameterCategory":1,"la1":30.2991,"la2":30.254,"lo1":-89.0895,"lo2":-89.0444,"dy":0.0017,"dx":0.0017,"nx":28,"ny":28,"refTime":"2023-11-04T09:00:00:Z","depth":0,"parameterNumber":2,"parameterNumberName":"U-component_of_WINDS"},"data":[0,0,0,0,0,0,0,0,0,0,0,0,0,0,0,0,0,0,0,0,0,0,0,0,0,0,0,0,0,0,0,0,0,0,0,0,0,0,0,0,0,0,0,0,0,0,0,0,0,0,0,0,0,0,0,0,0,0,1.1347,1.1349,0,1.1451,1.1452,1.1454,1.1469,1.1468,1.1467,1.1466,1.1575,1.1579,1.1583,0,0,0,0,0,0,0,0,0,0,0,0,0,1.1163,1.1167,1.1347,1.1349,1.135,1.1451,1.1452,1.1454,1.1469,1.1468,1.1466,1.1465,1.1574,1.1578,1.1583,0,0,0,0,0,0,0,0,0,0,0,0,0,1.1253,1.1168,1.1347,1.1369,1.1372,1.1451,1.1453,1.1454,1.1469,1.1468,1.1466,1.1465,1.1572,1.1578,1.1584,1.1648,0,0,1.1601,1.1603,0,0,0,0,0,0,0,0,1.1248,1.126,1.1365,1.1368,1.1372,1.1445,1.1428,1.1519,1.1469,1.1432,1.1466,1.1464,1.1533,1.1542,1.1565,1.1653,1.1657,1.1602,1.1605,1.1607,1.1609,0,0,0,0,0,0,0,1.1242,1.1255,1.1389,1.1366,1.1371,1.1375,1.1386,1.1445,1.149,1.1436,1.1437,1.1449,1.1535,1.1559,1.1568,1.1659,1.1601,1.1606,1.161,1.1612,1.1802,1.1804,0,0,0,0,0,0,1.1231,1.125,1.1385,1.1392,1.1305,1.1379,1.1392,1.1423,1.1489,1.1498,1.145,1.1449,1.155,1.1561,1.1571,1.1649,1.1607,1.1613,1.1616,1.1801,1.1803,1.1805,0,0,0,0,0,0,1.1227,1.1243,1.1381,1.1321,1.1339,1.1384,1.1419,1.1426,1.145,1.15,1.1508,1.1467,1.155,1.1563,1.1628,1.1653,1.1615,1.162,1.1799,1.1801,1.1804,1.1805,0,0,0,0,0,0,1.1222,1.1241,1.1266,1.1322,1.1342,1.1435,1.1421,1.1429,1.146,1.146,1.1518,1.1526,1.155,1.1619,1.1633,1.166,1.1625,1.1797,1.18,1.1803,1.1803,1.1807,1.1811,0,0,0,0,0,1.1215,1.1263,1.1267,1.1283,1.1374,1.1437,1.1448,1.1474,1.1462,1.1487,1.1518,1.1524,1.1648,1.1626,1.1642,1.1671,1.1795,1.1799,1.1803,1.1801,1.1807,1.1811,0,0,0,0,0,0,1.1211,1.1271,1.1276,1.1344,1.1385,1.1439,1.1471,1.1479,1.1525,1.1523,1.1553,1.1566,1.1628,1.1657,1.163,1.1735,1.1721,1.1728,1.1714,1.172,1.1723,1.1715,1.163,0,0,0,0,0,1.1218,1.1263,1.1314,1.1369,1.1389,1.1426,1.1455,1.147,1.1515,1.1532,1.1569,1.1612,1.166,1.1692,1.174,1.1808,1.182,1.1835,1.1839,1.1842,1.1848,1.1883,1.189,1.1817,1.1816,1.1816,0,0,1.1233,1.1271,1.1298,1.1369,1.1402,1.1448,1.1441,1.1491,1.1525,1.154,1.1602,1.1631,1.1681,1.1746,1.1777,1.1772,1.1871,1.1847,1.1849,1.1853,1.1888,1.1895,1.1901,1.1819,1.1819,1.1818,0,0,1.1283,1.1317,1.1365,1.1399,1.1449,1.1474,1.1485,1.1538,1.1557,1.1619,1.1631,1.1673,1.1756,1.1791,1.1819,1.1881,1.1887,1.1896,1.1916,1.1951,1.1956,1.1962,1.1982,1.1989,1.1901,1.1901,1.1901,0,1.1295,1.1364,1.139,1.1438,1.1468,1.1482,1.1531,1.1563,1.1627,1.1647,1.164,1.1743,1.1778,1.1851,1.1865,1.1889,1.1902,1.1888,1.1953,1.1959,1.1964,1.1984,1.1991,1.1902,1.1902,1.1901,1.1901,0,1.1376,1.1424,1.1457,1.1516,1.155,1.1599,1.1631,1.1663,1.1675,1.17,1.1763,1.1806,1.1861,1.188,1.1893,1.1954,1.1949,1.1947,1.1933,1.1971,1.199,1.1998,1.1902,1.1902,1.1902,1.1902,0,0,1.1426,1.1497,1.1509,1.1535,1.1591,1.1629,1.1678,1.1731,1.1756,1.18,1.1841,1.191,1.1908,1.194,1.1958,1.1989,1.2032,1.1983,1.1985,1.1989,1.2099,1.2099,1.2107,1.2037,1.2038,1.204,1.2094,0,1.1481,1.1568,1.1591,1.1664,1.1708,1.1721,1.1764,1.1803,1.1827,1.1869,1.1897,1.1944,1.1939,1.1958,1.1989,1.202,1.2054,1.2017,1.2075,1.2076,1.206,1.2117,1.2117,1.2167,1.2102,1.2103,1.2104,0,1.1557,1.16,1.1677,1.1725,1.1744,1.1782,1.1831,1.187,1.1914,1.193,1.1965,1.1979,1.2031,1.2015,1.2085,1.2059,1.2084,1.2103,1.2105,1.2111,1.2091,1.2122,1.2183,1.219,1.2116,1.2115,1.2115,0,1.1583,1.1661,1.1716,1.1738,1.1797,1.1822,1.1848,1.1891,1.192,1.1964,1.1983,1.2032,1.2059,1.2097,1.2124,1.211,1.2191,1.2178,1.2205,1.2204,1.2221,1.2219,1.2285,1.224,1.224,1.2239,1.2239,0,1.1641,1.1687,1.1728,1.1762,1.1813,1.184,1.1891,1.1917,1.1955,1.1994,1.201,1.2046,1.2081,1.2122,1.2144,1.2197,1.221,1.2224,1.2229,1.2221,1.2219,1.2237,1.2234,1.2241,1.2241,1.2241,1.224,0,1.1679,1.1708,1.1769,1.1819,1.1832,1.1868,1.191,1.1944,1.1969,1.2018,1.2031,1.207,1.2119,1.215,1.2214,1.2228,1.2286,1.2291,1.2271,1.2273,1.2297,1.2294,1.2376,1.2387,1.2336,1.2336,1.2337,0,1.1713,1.1748,1.1801,1.1828,1.1853,1.1896,1.1926,1.1954,1.1984,1.2036,1.2062,1.2112,1.2153,1.2231,1.2265,1.2313,1.2318,1.2344,1.2326,1.2316,1.2316,1.2313,1.2316,1.2346,1.2347,1.2347,1.2347,0,1.1769,1.1782,1.1823,1.1869,1.1904,1.1942,1.198,1.2001,1.2035,1.2069,1.2118,1.215,1.2213,1.2261,1.2312,1.2339,1.2348,1.2353,1.2361,1.2353,1.2339,1.2345,1.2277,1.235,1.235,1.235,1.235,1.235,1.1805,1.1836,1.1878,1.1923,1.1954,1.1989,1.2022,1.205,1.2091,1.2144,1.2158,1.2209,1.2252,1.232,1.2348,1.2388,1.2385,1.2398,1.2401,1.2403,1.2402,1.2333,1.2398,1.2398,1.2398,1.2398,1.2398,0,1.1861,1.1888,1.1929,1.1981,1.2016,1.2021,1.2063,1.2092,1.2137,1.2175,1.2214,1.227,1.2318,1.2355,1.2403,1.2428,1.2434,1.244,1.2438,1.2443,1.2404,1.239,1.2435,1.2435,1.2435,1.2435,1.2435,1.2435,1.1894,1.1946,1.1963,1.2031,1.2058,1.2107,1.213,1.2162,1.2192,1.2253,1.2292,1.2316,1.2353,1.2404,1.2447,1.2457,1.2474,1.2478,1.2489,1.2451,1.2447,1.2443,1.243,1.2482,1.2482,1.2525,1.2526,1.2526]},{"header":{"parameterUnit":"m.s-1","parameterCategory":1,"la1":30.2991,"la2":30.254,"lo1":-89.0895,"lo2":-89.0444,"dy":0.0017,"dx":0.0017,"nx":28,"ny":28,"refTime":"2023-11-04T09:00:00:Z","depth":0,"parameterNumber":3,"parameterNumberName":"V-component_of_WINDS"},"data":[0,0,0,0,0,0,0,0,0,0,0,0,0,0,0,0,0,0,0,0,0,0,0,0,0,0,0,0,0,0,0,0,0,0,0,0,0,0,0,0,0,0,0,0,0,0,0,0,0,0,0,0,0,0,0,0,0,0,1.2786,1.2785,0,1.2695,1.2694,1.2693,1.263,1.2629,1.2629,1.2628,1.2533,1.2531,1.2529,0,0,0,0,0,0,0,0,0,0,0,0,0,1.2901,1.2899,1.2786,1.2785,1.2784,1.2696,1.2694,1.2693,1.263,1.2629,1.2629,1.2628,1.2534,1.2531,1.2529,0,0,0,0,0,0,0,0,0,0,0,0,0,1.2835,1.2899,1.2787,1.2742,1.2737,1.2696,1.2694,1.2693,1.263,1.2629,1.2629,1.2628,1.2535,1.2532,1.2528,1.2524,0,0,1.2519,1.2518,0,0,0,0,0,0,0,0,1.2839,1.2831,1.275,1.2745,1.2739,1.2673,1.27,1.2636,1.263,1.2671,1.2628,1.2628,1.258,1.2573,1.2558,1.2519,1.2515,1.2519,1.2517,1.2515,1.2514,0,0,0,0,0,0,0,1.2843,1.2834,1.275,1.2749,1.2742,1.2725,1.2715,1.2687,1.2631,1.2667,1.2662,1.2653,1.2577,1.2561,1.2555,1.2514,1.2519,1.2516,1.2514,1.2513,1.2462,1.2463,0,0,0,0,0,0,1.2855,1.2839,1.2753,1.2748,1.2788,1.2724,1.2712,1.2695,1.2631,1.262,1.2653,1.265,1.2567,1.2559,1.2551,1.2539,1.2515,1.2512,1.2511,1.2462,1.2462,1.2463,0,0,0,0,0,0,1.2858,1.2848,1.2757,1.2792,1.2779,1.2723,1.2704,1.2694,1.2677,1.262,1.2609,1.2647,1.2566,1.2556,1.253,1.2535,1.2511,1.2508,1.2461,1.2462,1.2463,1.2515,0,0,0,0,0,0,1.2862,1.285,1.2849,1.2792,1.2777,1.2739,1.2704,1.2693,1.2672,1.2667,1.2612,1.2602,1.2564,1.2535,1.2527,1.253,1.2506,1.246,1.2461,1.2462,1.2513,1.2518,1.2522,0,0,0,0,0,1.2866,1.2867,1.2849,1.2839,1.2775,1.2739,1.273,1.2688,1.2673,1.267,1.2633,1.2604,1.2536,1.2533,1.2523,1.2525,1.246,1.2461,1.2462,1.2511,1.2517,1.2522,0,0,0,0,0,0,1.2926,1.2859,1.2838,1.2821,1.2786,1.2729,1.2724,1.2696,1.2664,1.2661,1.2609,1.2597,1.2576,1.2548,1.2546,1.2515,1.2494,1.2493,1.2534,1.2539,1.2544,1.255,1.2503,0,0,0,0,0,1.2937,1.2915,1.2858,1.2848,1.2832,1.2781,1.2764,1.2734,1.2696,1.268,1.2641,1.2604,1.2574,1.2555,1.2525,1.2509,1.2494,1.2505,1.2509,1.2513,1.2513,1.2499,1.2502,1.2467,1.2467,1.2467,0,0,1.296,1.2921,1.291,1.2859,1.2829,1.2805,1.2769,1.2747,1.2728,1.2677,1.265,1.262,1.2574,1.2553,1.2541,1.2529,1.2519,1.2515,1.2519,1.2516,1.2501,1.2504,1.2507,1.2468,1.2467,1.2467,0,0,1.2989,1.2959,1.2946,1.2916,1.287,1.2836,1.2833,1.2778,1.2756,1.2729,1.2689,1.2665,1.2615,1.2584,1.2561,1.2576,1.2546,1.2567,1.259,1.2577,1.258,1.2582,1.2585,1.2587,1.2567,1.2567,1.2567,0,1.3023,1.2988,1.2943,1.2922,1.2899,1.2852,1.2837,1.281,1.2756,1.2741,1.2728,1.2662,1.2629,1.2598,1.2601,1.2585,1.2578,1.2573,1.2584,1.2585,1.2587,1.2588,1.259,1.257,1.257,1.2569,1.2569,0,1.303,1.3006,1.3001,1.295,1.2927,1.291,1.286,1.2842,1.2814,1.278,1.2751,1.2709,1.2667,1.2658,1.263,1.2621,1.2615,1.2594,1.2571,1.2593,1.2594,1.2595,1.2574,1.2573,1.2572,1.2571,0,0,1.3095,1.3018,1.3017,1.2992,1.2937,1.2916,1.2895,1.2855,1.2839,1.2803,1.2782,1.274,1.2719,1.2693,1.2662,1.2651,1.2661,1.263,1.2628,1.2635,1.2645,1.2661,1.2663,1.2642,1.2642,1.2642,1.2648,0,1.3114,1.3075,1.3033,1.3008,1.2983,1.2937,1.2918,1.2881,1.2849,1.2821,1.2785,1.2755,1.2731,1.2715,1.2702,1.2663,1.2662,1.2662,1.262,1.2619,1.2631,1.2663,1.268,1.2689,1.2649,1.2649,1.2649,0,1.3132,1.3097,1.307,1.3014,1.3002,1.2986,1.2944,1.292,1.2876,1.2853,1.2823,1.2789,1.2762,1.2743,1.2703,1.2704,1.2684,1.2662,1.2661,1.2654,1.2634,1.2655,1.2691,1.2691,1.2649,1.2649,1.2649,0,1.3178,1.3126,1.3101,1.3082,1.3017,1.3006,1.2979,1.2934,1.2912,1.2875,1.2859,1.2819,1.2797,1.2766,1.2721,1.2712,1.2685,1.2663,1.2663,1.2664,1.2659,1.266,1.269,1.265,1.265,1.2649,1.2649,0,1.3203,1.3187,1.3121,1.3106,1.3086,1.3037,1.3019,1.2987,1.2947,1.2923,1.2881,1.2859,1.2802,1.2772,1.2737,1.2708,1.2699,1.2678,1.2668,1.268,1.2683,1.2666,1.2663,1.265,1.265,1.265,1.265,0,1.3252,1.3207,1.3177,1.3118,1.3103,1.3091,1.3039,1.3021,1.2986,1.2956,1.2947,1.2891,1.2854,1.2806,1.2754,1.273,1.2705,1.2691,1.272,1.2714,1.2716,1.2716,1.2735,1.2734,1.2696,1.2697,1.2697,0,1.327,1.3256,1.3196,1.3177,1.3151,1.3121,1.3098,1.3049,1.3026,1.2973,1.2961,1.2921,1.2887,1.2829,1.2783,1.2742,1.2726,1.2736,1.272,1.2732,1.2724,1.2724,1.2721,1.2739,1.274,1.2741,1.2741,0,1.3305,1.3283,1.3252,1.3212,1.3185,1.3151,1.3115,1.3102,1.3044,1.302,1.2982,1.2956,1.2902,1.2862,1.2815,1.2784,1.2752,1.2746,1.2744,1.2756,1.2772,1.2761,1.2729,1.2746,1.2745,1.2745,1.2745,1.2745,1.3337,1.3322,1.3277,1.3242,1.321,1.3176,1.3156,1.3118,1.3086,1.3039,1.3012,1.2974,1.2927,1.2861,1.2831,1.2799,1.2787,1.2785,1.2783,1.2783,1.2786,1.2778,1.2791,1.2791,1.2791,1.279,1.279,0,1.3368,1.3337,1.3305,1.3256,1.3228,1.3202,1.316,1.3137,1.3105,1.3065,1.3032,1.2986,1.2947,1.2897,1.2853,1.2837,1.2821,1.2827,1.2827,1.282,1.28,1.2806,1.2841,1.2841,1.2841,1.2841,1.2841,1.2841,1.3381,1.3354,1.3326,1.3281,1.3248,1.3212,1.319,1.3158,1.3125,1.3077,1.3044,1.3012,1.2967,1.2919,1.2881,1.2867,1.2852,1.2862,1.2843,1.2826,1.2822,1.2817,1.2822,1.286,1.286,1.2865,1.2865,1.2865]}]]